Regional Weather Roundup
Issued by NWS

Home | Current Version | Previous Version | Text Only | Print | Product List | Glossary Off
Versions: 1 2 3 4 5 6 7 8 9 10 11 12 13 14 15 16 17 18 19 20 21 22 23 24 25 26 27 28 29 30 31 32 33 34 35 36 37 38 39 40 41 42 43 44 45 46 47 48 49 50

000
ASUS43 KBIS 250302
RWRND

NORTH DAKOTA REGIONAL WEATHER ROUNDUP
NATIONAL WEATHER SERVICE BISMARCK ND
900 PM CST FRI NOV 24 2017

NOTE: "FAIR" INDICATES FEW OR NO CLOUDS BELOW 12,000 FEET WITH NO
SIGNIFICANT WEATHER AND/OR OBSTRUCTIONS TO VISIBILITY.


NDZ001>003-009>011-017-250400-
NORTHWEST NORTH DAKOTA

CITY           SKY/WX    TMP DP  RH WIND       PRES   REMARKS
WILLISTON      CLEAR     38  28  67 W12       29.86R
MINOT          CLEAR     37  30  75 W12       29.82R
MINOT AFB      CLEAR     35  29  81 NW9       29.81R
$$

NDZ018>021-031>035-040>046-250400-
SOUTHWEST NORTH DAKOTA

CITY           SKY/WX    TMP DP  RH WIND       PRES   REMARKS
BISMARCK       PTCLDY    41  30  65 W6        29.86R
DICKINSON      CLEAR     35  27  72 W10       29.88R
GARRISON         N/A     36  30  79 W7        29.83R
HETTINGER ARPT CLEAR     30  25  81 NW9       29.94R
$$

NDZ004>008-012>016-024-026-027-054-250400-
NORTHEAST NORTH DAKOTA

CITY           SKY/WX    TMP DP  RH WIND       PRES   REMARKS
GRAND FORKS    PTCLDY    38  32  79 NW17G28   29.73R
GRND FRKS AFB  CLEAR     37  31  77 NW14      29.74R
DEVILS LAKE    MOCLDY    34  31  88 W13       29.79R
$$

NDZ022-023-025-028>030-036>039-047>053-250400-
SOUTHEAST NORTH DAKOTA

CITY           SKY/WX    TMP DP  RH WIND       PRES   REMARKS
FARGO          CLEAR     40  32  73 NW17      29.76R
JAMESTOWN      PTCLDY    38  31  76 W10       29.80R
$$




USA.gov is the U.S. government's official web portal to all federal, state and local government web resources and services.